Tracking 30922 objects as of 2-Jul-2025
HD Live streaming from Space Station
objects crossing your sky now

COSMOS 1455

Track COSMOS 1455 now!
10-day predictions
COSMOS 1455 is classified as:


NORAD ID: 14032
Int'l Code: 1983-037A
Perigee: 327.3 km
Apogee: 332.6 km
Inclination: 82.5 °
Period: 91.0 minutes
Semi major axis: 6700 km
RCS: 6.2678 m2 (large)
Launch date: April 23, 1983
Source: Commonwealth of Independent States (former USSR) (CIS)
Launch site: PLESETSK MISSILE AND SPACE COMPLEX (PKMTR)
Your satellite tracking list
SSOT
Track 1 satellite(s)




NASA's NSSDC Master Catalog

Two Line Element Set (TLE):
1 14032U 83037A   25182.63123879  .00098239  00000-0  46465-3 0  9997
2 14032  82.4916  29.7020 0003980  41.9313 318.2260 15.82705282308714
Source of the keplerian elements: AFSPC